Retour au catalogue

ATLAS 5 CENTAUR DEB

ActifHEO
NORAD 46665·DEBRIS·🇺🇸 United States

Lancé Oct 17, 2018 depuis Cape Canaveral Space Force Station

Loading…

Prochains Passages (prochaines 24 heures)

TLE

FraisSource: Space-Track

Époque: Sep 13, 2026, 10:49 UTC

1 46665U 18079CT  26256.45079409 -.00000143  00000-0  00000+0 0  9999
2 46665  13.5522  53.2453 4567584 267.1958  41.6598  1.71546439 37155

Suivez ATLAS 5 CENTAUR DEB en temps réel avec AllMySat

Download on the App Store